TimeEST,TemperatureF,Dew PointF,Humidity,Sea Level PressureIn,VisibilityMPH,Wind Direction,Wind SpeedMPH,Gust SpeedMPH,PrecipitationIn,Events,Conditions,WindDirDegrees,DateUTC
12:54 AM,36.0,27.0,70,29.18,10.0,SW,5.8,-,N/A,,Overcast,220,2012-12-22 05:54:00
1:54 AM,36.0,27.0,70,29.18,10.0,SW,9.2,-,N/A,,Overcast,220,2012-12-22 06:54:00
2:54 AM,35.1,28.0,76,29.20,10.0,SW,9.2,-,N/A,,Overcast,220,2012-12-22 07:54:00
3:04 AM,35.6,28.4,75,29.19,10.0,SW,10.4,-,N/A,,Overcast,220,2012-12-22 08:04:00
3:54 AM,34.0,28.9,82,29.21,2.5,WSW,9.2,16.1,0.00,Snow,Light Snow,250,2012-12-22 08:54:00
3:57 AM,33.8,28.4,81,29.20,1.8,WSW,10.4,16.1,0.00,Snow,Light Snow,240,2012-12-22 08:57:00
4:25 AM,33.8,30.2,87,29.21,3.0,Variable,6.9,21.9,0.01,Snow,Light Snow,0,2012-12-22 09:25:00
4:50 AM,33.8,28.4,81,29.22,10.0,WSW,10.4,19.6,0.01,,Overcast,250,2012-12-22 09:50:00
4:54 AM,34.0,28.0,79,29.24,10.0,WSW,9.2,19.6,0.01,,Overcast,240,2012-12-22 09:54:00
5:16 AM,33.8,24.8,70,29.24,10.0,Variable,5.8,-,N/A,,Overcast,0,2012-12-22 10:16:00
5:54 AM,33.1,23.0,66,29.29,10.0,West,10.4,23.0,N/A,,Overcast,260,2012-12-22 10:54:00
6:27 AM,30.2,23.0,75,29.29,3.0,WSW,13.8,21.9,0.00,Snow,Light Snow,250,2012-12-22 11:27:00
6:54 AM,30.0,23.0,75,29.33,2.5,West,9.2,23.0,0.00,Snow,Light Snow,260,2012-12-22 11:54:00
7:03 AM,30.2,23.0,75,29.31,4.0,WSW,6.9,-,0.00,Snow,Light Snow,240,2012-12-22 12:03:00
7:15 AM,30.2,21.2,69,29.32,1.8,WNW,8.1,-,0.00,Snow,Light Snow,300,2012-12-22 12:15:00
7:54 AM,28.9,23.0,78,29.36,0.5,West,6.9,-,0.01,Snow,Snow,280,2012-12-22 12:54:00
8:08 AM,28.4,24.8,86,29.35,0.5,Variable,5.8,-,0.01,Fog-Snow,Snow,0,2012-12-22 13:08:00
8:28 AM,28.4,24.8,86,29.35,1.2,Variable,4.6,-,0.01,Snow,Light Snow,0,2012-12-22 13:28:00
8:32 AM,28.4,24.8,86,29.36,3.0,Variable,6.9,-,0.01,Snow,Light Snow,0,2012-12-22 13:32:00
8:54 AM,28.9,21.9,75,29.39,1.5,West,11.5,20.7,0.01,Snow,Light Snow,260,2012-12-22 13:54:00
8:59 AM,28.4,23.0,80,29.37,0.8,WSW,9.2,18.4,0.00,Snow,Light Snow,240,2012-12-22 13:59:00
9:20 AM,28.4,23.0,80,29.39,2.0,West,11.5,20.7,0.00,Snow,Light Snow,280,2012-12-22 14:20:00
9:26 AM,28.4,21.2,74,29.39,6.0,WSW,10.4,21.9,0.00,,Haze,250,2012-12-22 14:26:00
9:54 AM,28.0,19.0,69,29.44,2.5,WSW,13.8,25.3,0.00,Snow,Light Snow,250,2012-12-22 14:54:00
10:03 AM,26.6,19.4,74,29.41,1.5,West,16.1,27.6,0.00,Snow,Light Snow,280,2012-12-22 15:03:00
10:26 AM,26.6,21.2,80,29.42,0.5,West,5.8,-,0.01,Snow,Snow,270,2012-12-22 15:26:00
10:33 AM,26.6,21.2,80,29.42,0.2,WNW,8.1,-,0.01,Fog-Snow,Snow,290,2012-12-22 15:33:00
10:46 AM,26.6,23.0,86,29.43,0.5,NNW,4.6,-,0.02,Fog-Snow,Snow,330,2012-12-22 15:46:00
10:58 AM,26.6,21.2,80,29.42,2.0,NW,5.8,-,0.00,Snow,Light Snow,310,2012-12-22 15:58:00
11:01 AM,26.6,21.2,80,29.42,6.0,Variable,4.6,-,0.00,Snow,Light Snow,0,2012-12-22 16:01:00
11:17 AM,28.4,15.8,59,29.42,9.0,WNW,11.5,24.2,0.00,,Overcast,290,2012-12-22 16:17:00
11:54 AM,27.0,15.1,61,29.45,2.5,WNW,12.7,23.0,0.00,Snow,Light Snow,290,2012-12-22 16:54:00
12:02 PM,26.6,15.8,64,29.43,1.5,WNW,10.4,26.5,0.00,Snow,Light Snow,300,2012-12-22 17:02:00
12:15 PM,26.6,19.4,74,29.43,0.5,West,18.4,26.5,0.00,Snow,Snow,270,2012-12-22 17:15:00
12:31 PM,26.6,19.4,74,29.43,1.0,WNW,9.2,21.9,0.00,Snow,Light Snow,290,2012-12-22 17:31:00
12:35 PM,26.6,17.6,69,29.43,3.0,WNW,11.5,21.9,0.00,Snow,Light Snow,300,2012-12-22 17:35:00
12:54 PM,27.0,14.0,58,29.47,3.0,WNW,12.7,25.3,0.00,Snow,Light Snow,300,2012-12-22 17:54:00
1:00 PM,26.6,15.8,64,29.45,1.8,West,16.1,21.9,0.00,Snow,Light Snow,280,2012-12-22 18:00:00
1:19 PM,26.6,15.8,64,29.45,2.0,West,10.4,23.0,0.00,Snow,Light Snow,280,2012-12-22 18:19:00
1:26 PM,26.6,17.6,69,29.45,1.5,West,13.8,18.4,0.00,Snow,Light Snow,270,2012-12-22 18:26:00
1:47 PM,26.6,15.8,64,29.46,2.0,WNW,9.2,25.3,0.00,Snow,Light Snow,300,2012-12-22 18:47:00
1:54 PM,26.1,15.1,63,29.49,2.5,WNW,12.7,25.3,0.00,Snow,Light Snow,300,2012-12-22 18:54:00
2:13 PM,24.8,15.8,69,29.47,1.2,NW,9.2,34.5,0.00,Snow,Light Snow,310,2012-12-22 19:13:00
2:25 PM,24.8,17.6,74,29.48,0.5,West,13.8,23.0,0.00,Snow,Snow,280,2012-12-22 19:25:00
2:47 PM,24.8,19.4,80,29.49,0.2,WNW,6.9,16.1,0.00,Snow,Heavy Snow,300,2012-12-22 19:47:00
2:54 PM,24.1,19.0,81,29.52,0.2,Variable,6.9,-,0.01,Snow,Heavy Snow,0,2012-12-22 19:54:00
3:00 PM,24.8,17.6,74,29.49,0.5,NW,9.2,17.3,0.00,Snow,Snow,320,2012-12-22 20:00:00
3:20 PM,24.8,17.6,74,29.50,1.0,WNW,8.1,19.6,0.00,Snow,Light Snow,300,2012-12-22 20:20:00
3:25 PM,26.6,17.6,69,29.50,3.0,WNW,15.0,23.0,0.00,Snow,Light Snow,300,2012-12-22 20:25:00
3:43 PM,26.6,15.8,64,29.51,10.0,West,15.0,21.9,0.00,,Overcast,280,2012-12-22 20:43:00
3:54 PM,27.0,15.1,61,29.54,10.0,WNW,12.7,25.3,0.00,,Overcast,290,2012-12-22 20:54:00
4:54 PM,26.1,15.1,63,29.57,8.0,WNW,12.7,26.5,0.00,Snow,Light Snow,300,2012-12-22 21:54:00
5:54 PM,26.1,14.0,60,29.60,10.0,WNW,18.4,24.2,0.00,,Overcast,290,2012-12-22 22:54:00
6:54 PM,26.1,15.1,63,29.63,10.0,West,10.4,23.0,N/A,,Overcast,280,2012-12-22 23:54:00
7:54 PM,26.1,16.0,66,29.66,10.0,West,13.8,32.2,N/A,,Unknown,280,2012-12-23 00:54:00
8:54 PM,26.1,14.0,60,29.70,10.0,WNW,17.3,28.8,0.00,,Overcast,300,2012-12-23 01:54:00
9:54 PM,27.0,14.0,58,29.72,10.0,WNW,12.7,19.6,N/A,,Overcast,290,2012-12-23 02:54:00
10:54 PM,27.0,14.0,58,29.74,10.0,NW,8.1,18.4,N/A,,Overcast,310,2012-12-23 03:54:00
11:54 PM,27.0,15.1,61,29.74,10.0,WNW,6.9,-,N/A,,Overcast,300,2012-12-23 04:54:00